Погода в Кировограде

Хотите узнать прогноз погоды в Кировограде? Тогда Вам сюда: Погода в Кировограде

Поиск расширенной информации на нашем сайте:

Полезная информация:

Новости сайта



02.01.2020
Опубликован Долгосрочный прогноз погоды по городам России и ближнего зарубежья на январь 2020 года.
Карты: Прогноз на январь и февраль 2020 года, Сравнение прогнозируемой аномалии приземной температуры воздуха на январь 2020 года по разным моделям.




Погода в Кировограде - сегодня

Время (UTC), дата Ветер
(°,м/с) 
Видим.   Явления Облачность Т
(°С)
Тd
(°С)
f(%) Тe
(°С)
Pmin
(гПа)
dP
(гПа)
Po
(мм)
O2
(г/м3)
Тmin Tmax R s Состояние
почвы
15 27.03.20 050 (СВ) 20000 м    10/0 средняя, верхняя 
[Ac trans|Ci fib]
+14.4 -5.4 25 +14  1021.8  -1.6  751  288           
18 27.03.20 030 (СВ) 10 км    10/0 средняя, верхняя 
[Ac trans|Ci fib]
+12 -4.9 30 +12  1021.3  -0.7  750  290           
21 27.03.20 060 (СВ) 10 км    10/0 средняя, верхняя 
[Ac trans|Ci fib]
+11.1 -3.6 35 +10  1019.5  -1.8  749  290           
00 28.03.20 070 (В) 10 км    10/0 средняя, верхняя 
[Ac trans|Ci fib]
+9.7 -3.2 40 +8  1018.2  -1.4  748  291           
03 28.03.20 070 (В) 10 км    10/0 средняя, верхняя 
[Ac trans|Ci fib]
+8.5 -2.5 46 +7  1016.9  -1.3  747  292           
06 28.03.20 080 (В) 20000 м  {ливн. осадки}  9/4 1000 м кучево-дожд., средняя 
[Cb calv|Ac trans]
+7.8 -2.1 50 +5  1016  -1  746  293  +6.5    0.0     
09 28.03.20 060 (СВ) 20000 м    1/0 средняя 
[Ac trans]
+13.6 -5.1 27 +13  1014  -1.5  745  287           
12 28.03.20 070 (В) 20000 м    5/0 средняя, верхняя 
[Ac trans|Ci fib]
+16.6 -6.6 20 +16  1012.2  -1.6  744  283           
15 28.03.20 100 (В) 20000 м    9/0 средняя, верхняя 
[Ac trans|Ci fib]
+16 -5.5 22 +16  1010.7  -1.5  743  283           
18 28.03.20 060 (СВ) 10 км    10/0 верхняя 
[Ci fib]
+11 -6.2 29 +10  1010.6  -0.4  743  288    +17.4       
21 28.03.20 070 (В) 10 км    4/0 верхняя 
[Ci fib]
+8.7 -6.1 34 +8  1009.6  -1.2  742  290           
00 29.03.20 тихо ()   10 км    6/0 верхняя 
[Ci fib]
+6.3 -5.9 41 +6  1008.3  -1.4  741  292           
03 29.03.20 тихо ()   10 км    9/0 средняя, верхняя 
[Ac trans|Ci fib]
+5.4 -4.9 47 +5  1007.3  -1.1  740  293           
06 29.03.20 040 (СВ) 20000 м    9/0 средняя 
[Ac trans]
+6.8 -2.1 53 +8  1006.2  -0.9  739  291  +4.6  +0.8       
09 29.03.20 050 (СВ) 20000 м    9/0 средняя, верхняя 
[Ac trans|Ci fib]
+14.2 -0.3 37 +15  1004.8  -0.9  738  283           
12 29.03.20 350 (С) 20000 м    10/0 верхняя 
[Ci fib]
+17.3 -1.3 28 +18  1003.2  -1.3  737  280           
15 29.03.20 130 (ЮВ) 10 км    10/0 средняя, верхняя 
[Ac trans|Ci fib]
+14.3 -1.5 34 +14  1003.1  -0.3  737  282           
18 29.03.20 180 (Ю) 10 км    10/0 верхняя 
[Ci fib]
+10.8 +0.1 48 +10  1004.4  738  286    +17.6       
21 29.03.20 170 (Ю) 10 км    10/0 верхняя 
[Ci fib]
+7.2 +2.7 73 +7  1004.1  -0.5  738  289           
00 30.03.20 тихо ()   10 км    ясно 
+5.6 +3.2 85 +6  1003.4  -0.8  737  290           
03 30.03.20 200 (Ю) 10 км    6/0 средняя, верхняя 
[Ac trans|Ci fib]
+3.2 +2.5 95 +4  1003.6  737  293           
06 30.03.20 290 (З) 10 км    10/0 средняя, верхняя 
[Ac trans|Ci fib]
+6.2 +4.4 88 +7  1004.1  0.7  738  290  +3  +0.9       
09 30.03.20 290 (З) 10 км    10/0 средняя, верхняя 
[Ac trans|Ci fib]
+15.4 +1.4 39 +15  1003.9  0.4  738  281           
12 30.03.20 310 (СЗ) 10 км    10/0 средняя, верхняя 
[Ac trans|Ci fib]
+16 -3.5 26 +15  1004.9  739  281           
15 30.03.20 320 (СЗ) 10 км    6/0 верхняя 
[Ci fib]
+15.6 -0.4 33 +15  1006  1.1  739  282           
Время (UTC), дата Ветер
(°,м/с) 
Видим.   Явления Облачность Т
(°С)
Тd
(°С)
f(%) Тe
(°С)
Pmin
(гПа)
dP
(гПа)
Po
(мм)
O2
(г/м3)
Тmin Tmax R s Состояние
почвы

Для получения пояснительной информации подведите курсор к названию столбца.

ПОГОДА в Кировограде - архив

Всё, что Вы хотите узнать о погоде в Кировограде - удобно и подробно!

Выберите нужную дату (начиная с 1 января 2019* года) и нажмите кнопку "Найти".
Будут отображены архивные сводки погоды по пункту Кировоград, начиная с указанной даты.


Отображать данные в формате CSV (для использования в таблицах Excel)


Внимание! Наш архив погоды предназначен исключительно для личного некоммерческого использования в познавательных целях. Если Вам необходимы официальные справки о состоянии погоды (для производственных, юридических, коммерческих и т.п. целей), обращайтесь в органы Росгидромета.

*Примечание: данная дата относится к архиву по метеостанциям СССР (Россия, СНГ, Балтия).
Архив по метеостанциям Зарубежной Европы и Азии (кроме Китая) хранится 10 дней, по другим регионам земного шара (Китай, Африка, Америка, Австралия, Океания) - 1 день.

Кировоград - район местоположения метеостанции


Название, широта, долгота, высота метеостанции:
Кировоград 48.5°ш. 32.2°д. 171 м над ур. моря [Украина]

Дополнительная информация

В oтличие oт бoльшинства пoгoдных сайтoв мы публикуем пoдрoбную метеoинфoрмацию в детальнoм прoфессиoнальнoм фoрмате.

Характеристики температуры и влажнoсти вoздуха измеряются на высoте 2 м в тени вдали oт зданий и деревьев.
Скoрoсть ветра измеряется на высoте 10 м (на урoвне рoста челoвека скoрoсть ветра ниже в 1.5-2 раза). Если метеoстанция нахoдится в гoрoде или в лесу, тo скoрoсть ветра занижена на 2-4 м/с пo сравнению с oткрытым местoм. Скoрoсть ветра над акватoриями крупных рек и oзёр, а также на вершинах хoлмoв на 2-5 м/с выше, чем в oбычных услoвиях.
Атмoсфернoе давление в разных тoчках местнoсти мoжет значительнo oтличаться oт давления на метеoстанции, в зависимoсти oт услoвий рельефа (при пoдъёме на 10 м давление пoнижается примернo на 1 мм рт.ст.).